sat.trackr.live / text

‹ back to catalog

STRAND-1

NORAD 39090 · 2013-009E

PAYLOAD ACTIVE UNKNOWN

§ Identity

Operator
Country
UK
Launch date
2013-02-25
Launch site
SRILR
Launch vehicle
Mass (kg)
RCS (m²)
0.06

Purposes: comms, tech_demo

External: N2YO · Heavens-Above · Gunter

§ Orbital elements

Epoch: 2026-09-14T10:46:25.106880Z

Period
100.19 min
Inclination
98.3970°
Eccentricity
0.0008004
Mean motion
14.37206466 rev/d
Perigee alt
762.0 km
Apogee alt
773.5 km
Semi-major
7,145.9 km
B*
7.3725e-5
RAAN
75.5185°
Arg perigee
331.4695°
Mean anomaly
28.6053°
Rev number
70,988

§ Raw data

STRAND-11 39090U 13009E   26257.44890170  .00000177  00000+0  73725-4 0  99912 39090  98.3970  75.5185 0008004 331.4695  28.6053 14.37206466709888

JSON: /api/v1/satellites/39090 · /tle

For live sub-satellite position, see the globe view (requires WebGL).

§ Visibility from observer

Set your observer location to see the next 7 days of passes ≥ 10°. The values pass through the URL so the page stays shareable.

No JS? Fill the form by hand. The geolocation button needs JavaScript.

§ Radio — SatNOGS DB

ModeDescriptionDownlinkUplink
FSK UHF 9k6 FSK TLM (inactive) 437.568 MHz

1 transmitter · refreshed weekly from db.satnogs.org